www.pogodaiklimat.ru

Погода и климат >> Архив погоды >> Россия >> Якутия >> Оленек


ПОГОДА в Оленеке

АРХИВ ПОГОДЫ в Оленеке

Время (UTC), дата Ветер
(напр.,м/с)
 
Видим.   Явления Облачность Т
(С)
Тd
(С)
f
(%)
Тe
(С)
Тes
(С)
Комфортность P
(гПа)
Po
(гПа)
Тmin
(С)
Tmax
(С)
R
(мм)
S
(см)
00 14.02 Ю 1 20 км ясно -33.1 -36.7 70 -38 -38 опасность
обморожения
1024.1 992.7 -33.4 35
03 14.02 Ю 2 50 км ясно -33.1 -36.7 70 -41 -41 опасность
обморожения
1024.3 992.8 -34.4
06 14.02 нст 1 50 км ясно -30.1 -34.6 65 -34 -34 опасность
обморожения
1023.8 992.7
09 14.02 нст 1 20 км ясно -30.8 -34.5 70 -35 -35 опасность
обморожения
1024.0 992.9
12 14.02 штиль 0 н/о н/о -31.2 -34.8 70 -31 -31 опасность
обморожения
1024.5 993.3 -29.4
15 14.02 штиль 0 н/о н/о -34.2 -37.7 70 -34 -34 опасность
обморожения
1025.1 993.5
18 14.02 штиль 0 н/о н/о -37.1 -40.8 68 -37 -37 опасность
обморожения
1025.5 993.5
21 14.02 З 1 н/о н/о -39.1 -42.9 67 -44 -44 опасность
обморожения
1026.4 994.1
00 15.02 СЗ 1 20 км ясно -40.0 -44.1 65 -45 -45 опасность
обморожения
1027.1 994.6 -40.5 35
03 15.02 СЗ 2 50 км ясно -40.4 -44.5 65 -50 -49 опасность
обморожения
1027.6 995.0 -41.0
06 15.02 З 1 50 км ясно -37.3 -41.5 65 -42 -42 опасность
обморожения
1027.5 995.4
09 15.02 СЗ 1 20 км ясно -36.7 -41.1 64 -42 -42 опасность
обморожения
1027.9 995.9
12 15.02 штиль 0 н/о н/о -36.2 -40.1 67 -36 -36 опасность
обморожения
1027.9 995.9 -35.7
15 15.02 В 1 н/о н/о -35.7 -39.5 68 -40 -40 опасность
обморожения
1026.8 995.0
18 15.02 В 1 н/о н/о -37.1 -41.0 67 -42 -42 опасность
обморожения
1025.8 993.8
21 15.02 В 1 н/о н/о -35.1 -38.9 68 -40 -40 опасность
обморожения
1024.2 992.5
00 16.02 ЮВ 2 20 км ясно -35.6 -39.7 66 -44 -44 опасность
обморожения
1023.1 991.4 -38.2 35
03 16.02 ЮВ 1 50 км 5/0
[Ci sp]
-34.0 -38.2 66 -39 -38 опасность
обморожения
1021.8 990.3
06 16.02 ЮВ 2 50 км 8/0
[Ci sp]
-31.3 -35.0 70 -39 -39 опасность
обморожения
1020.1 989.0
09 16.02 ЮВ 1 20 км 10/0
[Ci sp]
-29.1 -32.9 70 -33 -33 опасность
обморожения
1019.0 988.2
12 16.02 Ю 2 н/о н/о -28.2 -31.8 71 -35 -35 опасность
обморожения
1017.4 986.8 -27.6
15 16.02 Ю 2 н/о н/о -28.2 -31.6 73 -35 -35 опасность
обморожения
1015.9 985.3
18 16.02 ЮВ 2 н/о н/о -30.2 -33.5 73 -38 -38 опасность
обморожения
1014.3 983.5
21 16.02 ЮВ 1 н/о н/о -29.2 -32.6 72 -33 -33 опасность
обморожения
1013.1 982.5
00 17.02 Ю 1 20 км 6/0
[Ci fib]
-29.1 -32.9 70 -33 -33 опасность
обморожения
1011.9 981.3 -31.1 35
03 17.02 нст 1 50 км 6/0
[Ci sp]
-29.1 -32.9 70 -33 -33 опасность
обморожения
1010.5 980.0
06 17.02 ЮВ 1 50 км 6/0
[Ci sp]
-25.2 -28.4 75 -29 -28 1009.0 979.0
09 17.02 Ю 3 20 км 8/0
[Ci sp]
-22.8 -26.0 75 -31 -31 опасность
обморожения
1008.3 978.6
12 17.02 ЮЗ 3 н/о н/о -23.1 -26.7 72 -31 -31 опасность
обморожения
1007.8 978.1 -22.7
15 17.02 ЮВ 1 н/о н/о -24.8 -27.7 77 -28 -28 1007.2 977.3
18 17.02 Ю 2 н/о н/о -25.5 -28.5 76 -32 -32 опасность
обморожения
1007.0 977.0
21 17.02 ЮЗ 2 н/о н/о -27.0 -30.1 75 -34 -34 опасность
обморожения
1006.7 976.6
00 18.02 В 3 н/о н/о -30.0 -33.3 73 -40 -40 опасность
обморожения
1006.4 975.9 -31.0
03 18.02 В 2 н/о н/о -28.5 -31.9 72 -36 -36 опасность
обморожения
1006.0 975.7
06 18.02 ЮВ 1 н/о н/о -26.2 -29.5 74 -30 -30 1005.0 975.0
09 18.02 В 2 н/о н/о -26.5 -29.8 74 -33 -33 опасность
обморожения
1004.8 974.8
12 18.02 ЮВ 2 н/о н/о -27.8 -31.1 73 -35 -35 опасность
обморожения
1004.8 974.6 -25.5
15 18.02 В 2 н/о н/о -27.9 -31.2 73 -35 -35 опасность
обморожения
1004.4 974.2
18 18.02 В 3 н/о н/о -30.9 -34.3 72 -41 -41 опасность
обморожения
1003.6 973.1
21 18.02 В 2 н/о н/о -30.6 -34.0 72 -38 -38 опасность
обморожения
1002.9 972.4
00 19.02 В 3 н/о н/о -33.9 -37.6 69 -44 -44 опасность
обморожения
1002.9 972.0 -34.6
03 19.02 В 2 н/о н/о -32.9 -36.7 69 -41 -41 опасность
обморожения
1002.4 971.6 -35.8
06 19.02 В 2 н/о н/о -29.4 -33.0 71 -37 -37 опасность
обморожения
1002.0 971.7
09 19.02 В 2 н/о н/о -28.8 -32.2 72 -36 -36 опасность
обморожения
1003.4 973.1
12 19.02 СЗ 1 н/о н/о -29.7 -33.1 72 -34 -34 опасность
обморожения
1004.7 974.3 -27.9
15 19.02 З 1 н/о н/о -32.1 -35.7 70 -36 -36 опасность
обморожения
1006.2 975.5
21 19.02 З 1 н/о н/о -36.7 -40.5 68 -42 -42 опасность
обморожения
1010.5 979.0
00 20.02 СЗ 2 20 км ясно -37.5 -41.8 64 -46 -46 опасность
обморожения
1012.7 981.1 -37.7 35
03 20.02 З 1 50 км ясно -36.5 -40.7 65 -41 -41 опасность
обморожения
1014.9 983.3 -39.3
06 20.02 З 1 50 км ясно -33.0 -37.4 65 -37 -37 опасность
обморожения
1016.3 985.1
09 20.02 штиль 0 50 км ясно -32.8 -36.4 70 -33 -33 опасность
обморожения
1018.4 987.1
12 20.02 штиль 0 20 км ясно -34.8 -38.4 70 -35 -35 опасность
обморожения
1019.7 988.2 -31.6
15 20.02 штиль 0 н/о н/о -36.5 -40.4 67 -37 -37 опасность
обморожения
1020.3 988.5
18 20.02 В 2 н/о н/о -38.9 -42.8 66 -48 -48 опасность
обморожения
1021.1 989.0
21 20.02 В 1 н/о н/о -40.2 -44.2 65 -45 -45 опасность
обморожения
1021.4 989.1

 

Местоположение метеостанции Оленек (Якутия, Россия): широта 68.50 долгота 112.40 высота над уровнем моря 220 м.

В архиве по умолчанию представлена погода в Оленеке за последнюю неделю. Архивные данные за месяц целиком и за предыдущие месяцы, начиная с января 2011 года, Вы можете получить, выбрав интересующий диапазон дат из раскрывающегося списка и нажав кнопку "Ввод!".

Внимание! Время в таблицах - всемирное. Для получения местного времени необходимо прибавить поправку, которая в Оленеке равна 9 ч.

Смотрите также архив погоды в соседних городах и на ближайших метеорологических станциях:

Погода в Джалинде (Якутия, Россия) (191 км)
Погода в Полярном (Якутия, Россия) (197 км)
Погода в Ярольине (Якутия, Россия) (224 км)
Погода в Сухане (Якутия, Россия) (240 км)
Погода в Шелагонцах (Якутия, Россия) (262 км)
Погода в Эйке (Якутия, Россия) (349 км)
Погода в Саскылахе (Якутия, Россия) (391 км)
Погода в Хабардино (Якутия, Россия) (434 км)
Погода в Джарджане (Якутия, Россия) (470 км)
Погода в Жиганске (Якутия, Россия) (498 км)

Пояснения к столбцам:

Ветер - указаны скорость ветра в м/с - средняя за 10 мин, порывы в срок и между сроками (в фигурных скобках) и направление, откуда дует ветер: С - северный, СВ - северо-восточный, В - восточный, ЮВ - юго-восточный, Ю - южный, ЮЗ - юго-западный, З - западный, СЗ - северо-западный.
Видимость - горизонтальная дальность видимости в метрах или километрах. При видимости от 1 до 10 км при отсутствии осадков обычно наблюдается дымка, при ухудшении видимости до 1 км и менее - туман. В сухую погоду видимость может ухудшаться дымом, пылью или мглою.
Явления - указаны атмосферные явления, наблюдавшиеся в срок или в последний час перед сроком; фигурными скобками обозначены явления, наблюдавшиеся между сроками (за 1-3 часа до срока); квадратными скобками обозначены град или гололедные отложения с указанием их диаметра в мм.
Облачность - указаны через наклонную черту общая и нижняя облачность в баллах и высота нижней границы облаков в метрах; квадратными скобками обозначены формы облаков: Ci - перистые, Cs - перисто-слоистые, Cc - перисто-кучевые, Ac - высококучевые, As - высокослоистые, Sc - слоисто-кучевые, Ns - слоисто-дождевые, Cu - кучевые, Cb - кучево-дождевые. Подробнее классификацию облаков см. в Атласе облаков (PDF).
T - Температура воздуха - температура, измеренная на высоте 2 м над землей.
Td - Температура точки росы - температура, при понижении до которой содержащийся в воздухе водяной пар достигнет насыщения.
f - Относительная влажность воздуха - влажноcть воздуха, измеренная на высоте 2 м над землей.
Te - Эффективная температура - температура, которую ощущает одетый по сезону человек в тени. Характеристика душности погоды. При расчете учитывается влияние влажности воздуха и скорости ветра на теплоощущения человека.
Tes - Эффективная температура на солнце - температура, которую ощущает человек, с поправкой на солнечный нагрев. Характеристика знойности погоды. Зависит от высоты солнца над горизонтом, облачности и скорости ветра. Ночью, в пасмурную погоду, а также при ветре 12 м/с и более поправка равна нулю.
P - Атмосферное давление - приведенное к уровню моря атмосферное давление.
Po - Атмосферное давление - измеренное на уровне метеостанции атмосферное давление.
Tmin - Минимальная температура - минимум температуры воздуха на высоте 2 м над землей.
Tmax - Максимальная температура - максимум температуры воздуха на высоте 2 м над землей.
R - Количество осадков - Количество выпавших осадков, мм. При наведении курсора мыши на число - период времени, за который выпало указанное количество осадков.
S - Снежный покров - Высота снежного покрова, см. При наведении курсора мыши на число - состояние снежного покрова и степень покрытия местности в баллах.